Weather Roundup
Issued by NWS Chicago, IL

Home | Current Version | Previous Version | Text Only | Print | Product List | Glossary Off
Versions: 1 2 3 4 5 6 7 8 9 10 11 12 13 14 15 16 17 18 19 20 21 22 23 24 25 26 27 28 29 30 31 32 33 34 35 36 37 38 39 40 41 42 43 44 45 46 47 48 49 50

000
NZUS59 KLOT 041708
HRRLOT

CHICAGO AREA WEATHER ROUNDUP
NATIONAL WEATHER SERVICE CHICAGO/ROMEOVILLE IL
1200 PM CDT SAT JUL 04 2015

NOTE: "FAIR" INDICATES FEW OR NO CLOUDS BELOW 12,000 FEET WITH NO
SIGNIFICANT WEATHER AND/OR OBSTRUCTIONS TO VISIBILITY.

* THESE STATIONS ARE NOT UNDER NWS QUALITY CONTROL. THEY ALSO MAY NOT
  REPORT WEATHER SUCH AS PRECIPITATION OR FOG.

ILZ005-006-012>014-019>023-041800-
NORTHEAST ILLINOIS

CITY           SKY/WX    TMP DP  RH WIND       PRES   REMARKS
OHARE          SUNNY     76  54  46 S6        30.01R
MIDWAY         MOSUNNY   80  56  43 CALM      30.01R HX  80
AURORA         SUNNY     77  57  50 VRB3      30.03R
LANSING*       SUNNY     77  54  45 CALM      30.02S
JOLIET*        SUNNY     78  59  52 CALM      30.02S
WAUKEGAN       MOSUNNY   77  61  57 SE6       30.00S
DUPAGE AIRPORT SUNNY     77  56  48 S3        30.01S
WHEELING       SUNNY     78  57  48 SW5       30.02S
KANKAKEE*      MOSUNNY   80  64  57 SW5       30.03S HX  81
MORRIS*        SUNNY     76  58  53 W6        30.01S
LEWIS AIRPORT* SUNNY     77  56  48 W5        30.02S
NORTHERLY IS     N/A     70  60  70 E5          N/A
$$

WIZ051-052-058>065-066-070>072-041800-
SOUTHEAST WISCONSIN

CITY           SKY/WX    TMP DP  RH WIND       PRES   REMARKS
MILWAUKEE      MOSUNNY   79  58  48 VRB3      29.99S HX  80
KENOSHA*       SUNNY     77  59  53 SW6       30.01R
RACINE*        SUNNY     77  60  55 SE8       30.01S
BURLINGTON     MOSUNNY   76  59  56 S5        30.01R
WAUKESHA       SUNNY     75  57  53 SW7       30.01R
WEST BEND      SUNNY     77  57  50 SW3       29.99S
$$

INZ001>003-010>013-019-020-041800-
NORTHWEST INDIANA

CITY           SKY/WX    TMP DP  RH WIND       PRES   REMARKS
GARY*          MOSUNNY  N/A N/A N/A VRB5      30.02S
MICHIGAN CITY* NOT AVBL
RENSSELAER*    NOT AVBL
VALPARAISO     MOSUNNY   76  60  57 VRB3      30.03S
$$

LMZ740>746-041800-
SOUTHERN LAKE MICHIGAN

STATION/POSITION TIME  SKY/WX   TEMP WIND        PRES    VSBY
                                AIR  DIR/SP/G
                 (UTC)          (F)  (DEG/KT/KT) (MB)    (MI)
HARRISON CRIB    1600            67  110/  7/  8   N/A
BURNHAM HARBOR   1700            70   80/  4/  5   N/A
CALUMET HARBOR   1600            70   50/  6/  7   N/A
BURNS HARBOR     1600            69  350/  3/  3 1016.9S
MICHIGAN CITY    1600            68  250/  4/  4   N/A
$$

ABBREVIATIONS USED IN REMARKS
   TC - TEMPERATURE IN CELSIUS
  WCI - WIND CHILL INDEX
   HX - HEAT INDEX
  VSB - VISIBILITY
$$



USA.gov is the U.S. government's official web portal to all federal, state and local government web resources and services.